Regional Weather Roundup
Issued by NWS Newport/Morehead, NC

Current Version | Previous Version | Graphics & Text | Print | Product List | Glossary Off
Versions: 1 2 3 4 5 6 7 8 9 10 11 12 13 14 15 16 17 18 19 20 21 22 23 24 25 26 27 28 29 30 31 32 33 34 35 36 37 38 39 40 41 42 43 44 45 46 47 48 49 50
000 ASUS42 KMHX 251822 RWRMHX WEATHER ROUNDUP FOR EASTERN NORTH CAROLINA NATIONAL WEATHER SERVICE NEWPORT/MOREHEAD CITY NC 100 PM EST TUE NOV 25 2014 NOTE: "FAIR" INDICATES FEW OR NO CLOUDS BELOW 12,000 FEET WITH NO SIGNIFICANT WEATHER AND/OR OBSTRUCTIONS TO VISIBILITY NCZ015>017-031-032-045>047-102-103-251900- NORTH COAST CITY SKY/WX TMP DP RH WIND PRES REMARKS EDENTON CLOUDY 63 61 95 NW5 30.01F ELIZABETH CITY CLOUDY 66 60 81 W7 30.02F KITTY HAWK CLOUDY 62 60 96 CALM 30.00F MANTEO CLOUDY 62 60 93 NW3 30.02F $$ NCZ045>047-081-094-103-104-251900- CENTRAL COAST CITY SKY/WX TMP DP RH WIND PRES REMARKS FRISCO CLOUDY 62 61 96 N5 30.02F SWANQUARTER N/A 63 N/A N/A W3 29.97S $$ NCZ095-097-098-100-101-251900- SOUTHERN COAST CITY SKY/WX TMP DP RH WIND PRES REMARKS BEAUFORT CLOUDY 66 61 84 NW6 30.02S CEDAR ISLAND N/A 59 N/A N/A NW3 30.06S JACKSONVILLE CLOUDY 66 62 87 W6 30.02R PINEY ISLAND CLOUDY 68 61 78 W6 30.01F WILMINGTON CLOUDY 67 63 87 W10 30.02F $$ NCZ011>013-027>030-043-044-078>080-089-090>093-098-251900- COASTAL PLAIN CITY SKY/WX TMP DP RH WIND PRES REMARKS AHOSKIE LGT RAIN 59 58 96 CALM 30.03F CLINTON LGT RAIN 62 62 100 SW5 30.04S ELIZABETHTOWN CLOUDY 63 63 99 SW3 30.04F GOLDSBORO LGT RAIN 62 62 99 W5 30.01S GREENVILLE RAIN 63 61 94 CALM 30.03F HAVELOCK CLOUDY 67 63 87 W9 30.02F KENANSVILLE CLOUDY 63 61 94 W7 30.04F KINSTON DRIZZLE 64 63 94 W3 30.04R NEW BERN CLOUDY 67 62 84 W8 30.02F RICHLANDS CLOUDY 63 59 88 W6 30.05R ROCKY MOUNT LGT RAIN 57 53 86 N7 30.03F WASHINGTON CLOUDY 63 61 92 NW5 30.02F WHITEVILLE DRIZZLE 64 63 94 CALM 30.04S $$ AMZ130-135-150-152-154-156-158-170-250-252-270-ANZ085-086-088-633-658-670-251900- MARINE OBSERVATIONS STATION/POSITION TIME TEMP WIND PRES WAVE SWELL AIR SEA DIR/SP/G HT/PER HT/PER (UTC) (F) (DEG/KT/KT) (MB) (FT/S) (FT/S) CHESAPEAKE LIGHT 1800 60 260/ 15/ 15 1016.4 64 E VA BEACH 1800 63 64 260/ 10/ 12 1016.3 5/ 9 5/ 9 DUCK 1800 60 59 270/ 7/ 8 1015.6 2 E DUCK 1800 58 N/A 3/ 9 2/11 10 NE DUCK 1800 59 N/A 4/ 9 2/11 OREGON INLET 1800 63 57 310/ 4/ 5 1016.2 13E OREGON INLT 1800 62 N/A 4/ 8 2/11 HATTERAS CG 1800 62 62 320/ 7/ 8 1016.8 DIAMOND BUOY 1800 68 340/ 6/ 10 1016.4 5/ 9 5/ 9 17 S OCRACOKE NOT AVBL CAPE LOOKOUT 1800 64 280/ 6/ 7 1016.5 BEAUFORT LAB 1800 66 58 350/ 4/ 7 1015.3 30 SE NEW RIVER 1800 66 69 330/ 10/ 12 1017.0 4/ 7 5/ 7 5 SE WRIGHTSVLE 1800 61 59 290/ 8/ 10 1016.3 225 S CAPE HAT 1727 75 74 190/ 17/ 21 1018.3 6/ 8 3/ 8 41 SE CHARLESTON 1800 69 75 290/ 8/ 10 1016.1 5/10 5/10 $$

USA.gov is the U.S. government's official web portal to all federal, state and local government web resources and services.